Guymon, OK

4:10 AM CST on December 06, 2016 (GMT -0600)
Guymon Municipal

Weather History for KGUY - July, 2013

Change the Weather History Date:

Monday, July 1, 2013

  Actual Average Record
Temperature  
Mean Temperature 71 °F 78 °F  
Max Temperature 82 °F 93 °F 100 °F (2011)
Min Temperature 60 °F 64 °F 57 °F (2007)
Degree Days  
Heating Degree Days 0 0  
Month to date heating degree days 0 0  
Since 1 June heating degree days 0 8  
Since 1 July heating degree days 0 0  
Cooling Degree Days 6 13  
Month to date cooling degree days 6 13  
Year to date cooling degree days 646 401  
Since 1 June cooling degree days 442 293  
Growing Degree Days 22 (Base 50)    
Moisture  
Dew Point 51 °F    
Average Humidity 59    
Maximum Humidity 90    
Minimum Humidity 27    
Precipitation  
Precipitation 0.00 in 0.08 in 0.51 in (2005)
Month to date precipitation 0.00 0.08  
Year to date precipitation 5.28 9.27  
Snow  
Snow 0.00 in - - ()
Month to date snowfall 0.0  
Since 1 June snowfall T  
Since 1 July snowfall 0.0  
Snow Depth 0.00 in    
Sea Level Pressure  
Sea Level Pressure 30.09 in    
Wind  
Wind Speed 6 mph (ENE)    
Max Wind Speed 16 mph    
Max Gust Speed 21 mph    
Visibility 10 miles    
Events      
T = Trace of Precipitation, MM = Missing Value Source: NWS Daily Summary

Daily Weather History Graph

Daily Weather History Graph

Search for Another Location

Airport or City:

Trip Planner

Search our weather history database for the weather conditions in past years. The results will help you decide how hot, cold, wet, or windy it might be!

Date:

Astronomy

Jul. 01, 2013 Rise Set
Actual Time 6:31 AM CDT 9:08 PM CDT
Civil Twilight 6:00 AM CDT 9:39 PM CDT
Nautical Twilight 5:22 AM CDT 10:17 PM CDT
Astronomical Twilight 4:40 AM CDT 10:59 PM CDT
Moon 1:56 AM CDT (7/1) 3:30 PM CDT (7/1)
Length of Visible Light 15h 38m
Length of Day
14h 37m
Waning Crescent, 35% of the Moon is Illuminated
Jul 1
Waning Crescent
Jul 8
New
Jul 15
First Quarter
Jul 22
Full
Jul 29
Last Quarter

Hourly Weather History & Observations

Time (CDT) Temp. Dew Point Humidity Pressure Visibility Wind Dir Wind Speed Gust Speed Precip Events Conditions
12:53 AM 64.9 °F 60.1 °F 84% 30.05 in 10.0 mi NNE 3.5 mph - N/A   Clear
1:53 AM 64.0 °F 60.1 °F 87% 30.05 in 10.0 mi NNE 5.8 mph - N/A   Clear
2:53 AM 63.0 °F 59.0 °F 87% 30.05 in 10.0 mi Calm Calm - N/A   Clear
3:53 AM 63.0 °F 57.0 °F 81% 30.06 in 10.0 mi Calm Calm - N/A   Scattered Clouds
4:53 AM 61.0 °F 57.0 °F 87% 30.10 in 10.0 mi Calm Calm - N/A   Clear
5:53 AM 61.0 °F 55.0 °F 81% 30.11 in 10.0 mi NE 3.5 mph - N/A   Clear
6:53 AM 61.0 °F 51.1 °F 70% 30.13 in 10.0 mi East 3.5 mph - N/A   Clear
7:53 AM 62.1 °F 53.1 °F 72% 30.14 in 10.0 mi NE 3.5 mph - N/A   Overcast
8:53 AM 64.9 °F 53.1 °F 65% 30.14 in 10.0 mi East 5.8 mph - N/A   Partly Cloudy
9:53 AM 69.1 °F 54.0 °F 58% 30.14 in 10.0 mi East 5.8 mph - N/A   Clear
10:53 AM 72.0 °F 52.0 °F 49% 30.14 in 10.0 mi SE 3.5 mph - N/A   Clear
11:53 AM 75.0 °F 52.0 °F 44% 30.13 in 10.0 mi ENE 8.1 mph - N/A   Clear
12:53 PM 75.0 °F 51.1 °F 43% 30.12 in 10.0 mi ENE 6.9 mph - N/A   Clear
1:53 PM 75.9 °F 51.1 °F 42% 30.12 in 10.0 mi ENE 8.1 mph - N/A   Clear
2:53 PM 77.0 °F 51.1 °F 40% 30.09 in 10.0 mi NNE 12.7 mph - N/A   Partly Cloudy
3:53 PM 78.1 °F 50.0 °F 37% 30.08 in 10.0 mi North 5.8 mph 18.4 mph N/A   Clear
4:53 PM 80.1 °F 50.0 °F 35% 30.06 in 10.0 mi ENE 9.2 mph - N/A   Partly Cloudy
5:53 PM 82.0 °F 46.9 °F 29% 30.05 in 10.0 mi ENE 15.0 mph 20.7 mph N/A   Partly Cloudy
6:53 PM 79.0 °F 44.1 °F 29% 30.05 in 10.0 mi NNE 8.1 mph - N/A   Partly Cloudy
7:53 PM 79.0 °F 41.0 °F 26% 30.06 in 10.0 mi ENE 10.4 mph - N/A   Clear
8:53 PM 75.0 °F 42.1 °F 31% 30.07 in 10.0 mi East 5.8 mph - N/A   Clear
9:53 PM 73.0 °F 42.1 °F 33% 30.08 in 10.0 mi ENE 6.9 mph - N/A   Partly Cloudy
10:53 PM 70.0 °F 43.0 °F 38% 30.10 in 10.0 mi ESE 6.9 mph - N/A   Partly Cloudy
11:53 PM 64.0 °F 46.0 °F 52% 30.12 in 10.0 mi SSW 3.5 mph - N/A   Clear